Regional Weather Roundup
Issued by NWS

Home | Current Version | Previous Version | Text Only | Print | Product List | Glossary On
Versions: 1 2 3 4 5 6 7 8 9 10 11 12 13 14 15 16 17 18 19 20 21 22 23 24 25 26 27 28 29 30 31 32 33 34 35 36 37 38 39 40 41 42 43 44 45 46 47 48 49 50
000
ASUS44 KFWD 161003
RWRTX
NORTH TEXAS HOURLY WEATHER ROUNDUP
NATIONAL WEATHER SERVICE FORT WORTH TX
400 AM CST TUE JAN 16 2018

NOTE: "FAIR" INDICATES FEW OR NO CLOUDS BELOW 12,000 FEET WITH NO
SIGNIFICANT WEATHER AND/OR OBSTRUCTIONS TO VISIBILITY.

TXZ118-119-161100-
DALLAS/FORT WORTH METROPLEX

CITY           SKY/WX    TMP DP  RH WIND       PRES   REMARKS
DFW AIRPORT    FLURRIES  24   6  46 N20G28    30.70R WCI  10
DALLAS LOVE    CLOUDY    24   5  44 N15       30.72R WCI  11
FTW MEACHAM    CLOUDY    23   6  48 N21G29    30.72R WCI   8
DAL-EXECUTIVE  CLOUDY    23   5  46 N20G28    30.69R WCI   8
FTW-ALLIANCE   FLURRIES  22   6  50 N18G28    30.72R WCI   7
FTW-NAS-JRB    CLOUDY    24   5  44 N17G25    30.74R WCI  11
FTW-SPINKS     CLOUDY    23   4  44 N22       30.72S WCI   8
ARLINGTON      CLOUDY    22   5  48 N22G29    30.70R WCI   6
GRAND PRAIRIE  MOCLDY    24   5  45 N17G25    30.73R WCI  10
ADDISON        CLOUDY    22   6  50 N15G25    30.74R WCI   8
MESQUITE       CLOUDY    23   7  50 N21       30.72R WCI   8
LANCASTER      CLOUDY    23   9  55 N16G25    30.71R WCI  10
$$

TXZ091>094-102>105-117-120-121-131>134-161100-
NORTH CENTRAL TEXAS

CITY           SKY/WX    TMP DP  RH WIND       PRES   REMARKS
SHRMAN/DENISON CLOUDY    19   4  52 N17G24    30.75R WCI   4
GAINESVILLE    CLOUDY    19   2  48 N14       30.76R WCI   6
BOWIE          CLOUDY    19   2  47 N12G18    30.74R WCI   6
BRIDGEPORT     CLOUDY    21   3  45 N13G22    30.76R WCI   9
DENTON         CLOUDY    20   5  52 N18G25    30.74R WCI   5
MCKINNEY       CLOUDY    21   6  52 N20       30.72R WCI   6
BONHAM         CLOUDY    17   1  49 N17       30.73R WCI   2
ROCKWALL       CLOUDY    22   5  49 MISG      30.72R
TERRELL        CLOUDY    22   4  46 N17G31    30.70R WCI   8
WAXAHACHIE     CLOUDY    23  10  56 N17G26    30.70R WCI   9
CLEBURNE       CLOUDY    23   3  42 N25G32    30.70R WCI   7
GRANBURY       CLOUDY    25   6  44 N14G23    30.73R WCI  14
$$

TXZ083>090-098>101-113>116-127>130-139>142-154-155-161100-
WESTERN NORTH TEXAS

CITY           SKY/WX    TMP DP  RH WIND       PRES   REMARKS
WICHITA FALLS  CLOUDY    15  -1  49 N9        30.77R WCI   3
WF-KICKAPOO    CLOUDY    19  -2  39 N13       30.80R WCI   6
VERNON         CLEAR     18  -9  29 N14       30.78R WCI   4
ABILENE        CLOUDY    21   1  41 N17G28    30.67R WCI   7
GRAHAM           N/A     20   2  45 N16G24    30.73R WCI   6
CISCO          CLOUDY    21   1  42 N18G26    30.67R WCI   6
EASTLAND       CLOUDY    20   1  43 N14       30.69R WCI   7
RANGER         CLOUDY    21   4  48 N16G23    30.68S WCI   7
MINERAL WELLS  CLOUDY    21   1  41 N15       30.71R WCI   8
STEPHENVILLE   CLOUDY    23   6  48 N18G24    30.70R WCI   8
COMANCHE       CLOUDY    23   5  46 N15G23    30.67S WCI  10
BROWNWOOD      CLOUDY    25   0  33 N15G24    30.66F WCI  12
COLEMAN        CLOUDY    24   2  38 N21       30.64S WCI   9
$$

TXZ143>147-156>162-174-175-161100-
CENTRAL TEXAS

CITY           SKY/WX    TMP DP  RH WIND       PRES   REMARKS
WACO           CLOUDY    26  16  65 N21       30.66R WCI  12
WACO-MCGREGOR  CLOUDY    25  13  60 N24G31    30.67R WCI   9
HILLSBORO      CLOUDY    25  15  65 N17G23    30.66S WCI  11
CORSICANA      LGT SNOW  23  18  81 N17G28    30.67S WCI   9
MEXIA          CLOUDY    24  18  78 N14G22    30.64R WCI  12
HEARNE         CLOUDY    28  23  84 N24G30    30.63R WCI  13
CAMERON        CLOUDY    29  22  75 N23G31    30.63R WCI  15
TEMPLE         CLOUDY    26  16  65 N25G31    30.63R WCI  11
KILLEEN        NOT AVBL
KILLEEN-SKYLRK CLOUDY    26  13  57 N21G30    30.63R WCI  12
FORT HOOD      CLOUDY    26  13  59 N21G30    30.59R WCI  11
GATESVILLE     CLOUDY    25  12  58 CALM      30.66R
HAMILTON       CLOUDY    25  12  57 N16G24    30.65R WCI  12
LAMPASAS       CLOUDY    26   8  48 N15G23    30.61S WCI  13
$$

TXZ095>097-106>112-122>126-135>138-148>153-164>167-161100-
EAST TEXAS

CITY           SKY/WX    TMP DP  RH WIND       PRES   REMARKS
PARIS          CLOUDY    19   7  59 N21       30.70R WCI   3
SULPHUR SPRNGS CLOUDY    23  10  57 N20G30    30.71R WCI   8
MOUNT PLEASANT CLOUDY    21  12  68 N13       30.69R WCI   9
GILMER         LGT SNOW  19  16  86 MISG      30.66R
MINEOLA        FLURRIES  21  14  73 N21       30.67S WCI   6
TYLER          LGT SNOW  21  18  88 N18G24    30.64R FOG     WCI   6
LONGVIEW       LGT SNOW  22  21  96 N12G22    30.63R FOG     WCI  10
MARSHALL       CLOUDY    23  20  89 N15G22    30.65R WCI  10
ATHENS         LGT SNOW  19  18  93 N13G21    30.65R WCI   7
PALESTINE      CLOUDY    23  20  89 N17G23    30.65R WCI   9
JACKSONVILLE   CLOUDY    22  20  94 N10       30.60R FOG     WCI  11
CENTER         MIX PCPN  28  25  87 NW17G26   30.58R WCI  15
NACOGDOCHES    MIX PCPN  26  24  92 N22G28    30.57R FOG     WCI  12
LUFKIN         MIX PCPN  29  26  89 N13G24    30.55R WCI  19
$$

SUPPLEMENTAL OBSERVATIONS (NWS FORT WORTH AREA)

CITY           SKY/WX    TMP DP  RH WIND       PRES   REMARKS
$$

SUPPLEMENTAL OBSERVATIONS (NWS NORMAN AREA)

CITY           SKY/WX    TMP DP  RH WIND       PRES   REMARKS
GOODLETT         N/A     14  -3  47 N14       30.75S WCI  -1
ODELL            N/A     13  -5  43 N13       30.78R WCI  -1
CROWELL          N/A     16  -3  43 N10       30.77S WCI   3
KNOX CITY        N/A     19  -4  35 N13G20    30.76S WCI   7
SEYMOUR          N/A     19  -1  43 N16       30.77S WCI   4
$$

SUPPLEMENTAL OBSERVATIONS (NWS SAN ANGELO AREA)

CITY           SKY/WX    TMP DP  RH WIND       PRES   REMARKS
WEINERT          N/A     19  -1  40 N14G21    30.75S WCI   6
HASKELL          N/A     20  -1  40 N18       30.74S WCI   4
THROCKMORTON     N/A     19   1  45 N14G22    30.75S WCI   6
CLYDE            N/A     20   1  44 N17       30.67R WCI   5
$$

SUPPLEMENTAL OBSERVATIONS (NWS SHREVEPORT AREA)

CITY           SKY/WX    TMP DP  RH WIND       PRES   REMARKS
$$

SUPPLEMENTAL OBSERVATIONS ARE A COLLECTION OF AUTOMATED INSTRUMENTS
THAT ARE MAINTAINED BY A VARIETY OF FEDERAL AND STATE AGENCIES.
CERTAIN ELEMENTS...SUCH AS HUMIDITY VALUES AND SUSTAINED WIND
SPEEDS...MAY BE APPROXIMATED.





USA.gov is the U.S. government's official web portal to all federal, state and local government web resources and services.